Weather History for LGEL - December, 2012

Change the Weather History Date:

Wednesday, December 5, 2012

  Actual Average Record
Temperature  
Mean Temperature 50 °F -  
Max Temperature 60 °F 55 °F 68 °F (1998)
Min Temperature 41 °F 42 °F 39 °F (2013)
Degree Days  
Heating Degree Days 14    
Moisture  
Dew Point 42 °F    
Average Humidity 75    
Maximum Humidity 87    
Minimum Humidity 55    
Precipitation  
Precipitation 0.00 in - - ()
Sea Level Pressure  
Sea Level Pressure 29.65 in    
Wind  
Wind Speed 2 mph ()    
Max Wind Speed 8 mph    
Max Gust Speed -    
Visibility 6.2 miles    
Events Rain    
Averages and records for this station are not official NWS values.
T = Trace of Precipitation, MM = Missing Value Source: Averaged Metar Reports

Daily Weather History Graph

Daily Weather History Graph

Search for Another Location

Airport or City:

Trip Planner

Search our weather history database for the weather conditions in past years. The results will help you decide how hot, cold, wet, or windy it might be!

Date:

Astronomy

Dec. 05, 2012 Rise Set
Actual Time 7:27 AM EET 5:05 PM EET
Civil Twilight 6:57 AM EET 5:35 PM EET
Nautical Twilight 6:24 AM EET 6:07 PM EET
Astronomical Twilight 5:53 AM EET 6:39 PM EET
Moon 11:31 PM EET (12/5) 11:45 AM EET (12/5)
Length of Visible Light 10h 37m
Length of Day
9h 38m
Waning Gibbous, 63% of the Moon is Illuminated
Dec 5
Waning Gibbous
Dec 6
Last Quarter
Dec 13
New
Dec 20
First Quarter
Dec 28
Full

Hourly Weather History & Observations

Time (EET) Temp. Windchill Dew Point Humidity Pressure Visibility Wind Dir Wind Speed Gust Speed Precip Events Conditions
12:50 AM 42.8 °F - 37.4 °F 81% 29.80 in - Calm Calm - N/A   Clear
1:50 AM 41.0 °F 39.0 °F 37.4 °F 87% 29.80 in - Variable 3.5 mph - N/A   Clear
2:50 AM 41.0 °F 38.0 °F 37.4 °F 87% 29.80 in - North 4.6 mph - N/A   Clear
3:50 AM 41.0 °F 39.0 °F 37.4 °F 87% 29.77 in - Variable 3.5 mph - N/A   Clear
4:50 AM 41.0 °F 38.0 °F 37.4 °F 87% 29.77 in - North 4.6 mph - N/A   Clear
5:20 AM 42.8 °F 40.1 °F 37.4 °F 81% 29.74 in - North 4.6 mph - N/A   Clear
5:50 AM 42.8 °F - 37.4 °F 81% 29.74 in - Calm Calm - N/A   Clear
6:20 AM 42.8 °F - 37.4 °F 81% 29.71 in - Variable 2.3 mph - N/A   Clear
6:50 AM 41.0 °F 39.0 °F 37.4 °F 87% 29.71 in - Variable 3.5 mph - N/A   Clear
7:20 AM 41.0 °F 39.0 °F 37.4 °F 87% 29.71 in - Variable 3.5 mph - N/A   Clear
7:50 AM 41.0 °F 37.1 °F 37.4 °F 87% 29.71 in - North 5.8 mph - N/A   Clear
8:20 AM 44.6 °F 43.1 °F 41.0 °F 87% 29.68 in - Variable 3.5 mph - N/A   Clear
8:50 AM 48.2 °F - 41.0 °F 76% 29.68 in - Variable 3.5 mph - N/A   Clear
9:20 AM 50.0 °F - 41.0 °F 71% 29.68 in 6.2 mi Calm Calm - N/A   Partly Cloudy
9:50 AM 53.6 °F - 42.8 °F 67% 29.68 in 6.2 mi Variable 3.5 mph - N/A   Mostly Cloudy
10:20 AM 55.4 °F - 44.6 °F 67% 29.65 in 6.2 mi Calm Calm - N/A   Mostly Cloudy
10:50 AM 59.0 °F - 44.6 °F 59% 29.62 in 6.2 mi East 4.6 mph - N/A   Mostly Cloudy
11:20 AM 60.8 °F - 44.6 °F 55% 29.62 in 6.2 mi Variable 3.5 mph - N/A   Mostly Cloudy
11:50 AM 59.0 °F - 44.6 °F 59% 29.62 in 6.2 mi Calm Calm - N/A   Mostly Cloudy
12:20 PM 59.0 °F - 46.4 °F 63% 29.59 in 6.2 mi Calm Calm - N/A   Scattered Clouds
12:50 PM 57.2 °F - 48.2 °F 72% 29.59 in 6.2 mi Calm Calm - N/A Rain Light Rain
1:20 PM 57.2 °F - 50.0 °F 77% 29.56 in 6.2 mi Calm Calm - N/A   Mostly Cloudy
1:50 PM 57.2 °F - 51.8 °F 82% 29.56 in 6.2 mi Calm Calm - N/A   Overcast
2:20 PM 57.2 °F - 50.0 °F 77% 29.56 in 6.2 mi Calm Calm - N/A   Overcast
2:50 PM 57.2 °F - 50.0 °F 77% 29.56 in 6.2 mi Calm Calm - N/A   Overcast
4:20 PM 53.6 °F - 48.2 °F 82% 29.56 in 6.2 mi Variable 3.5 mph - N/A   Overcast
4:50 PM 53.6 °F - 46.4 °F 77% 29.56 in 6.2 mi Calm Calm - N/A   Mostly Cloudy
5:20 PM 51.8 °F - 46.4 °F 82% 29.56 in 6.2 mi Variable 3.5 mph - N/A   Mostly Cloudy
5:50 PM 53.6 °F - 46.4 °F 77% 29.56 in 6.2 mi Variable 3.5 mph - N/A   Mostly Cloudy
6:20 PM 51.8 °F - 46.4 °F 82% 29.56 in 6.2 mi SW 8.1 mph - N/A   Mostly Cloudy
6:50 PM 53.6 °F - 44.6 °F 72% 29.59 in 6.2 mi Calm Calm - N/A   Scattered Clouds
7:20 PM 51.8 °F - 42.8 °F 71% 29.59 in 6.2 mi Calm Calm - N/A   Scattered Clouds
7:50 PM 53.6 °F - 44.6 °F 72% 29.59 in 6.2 mi SW 4.6 mph - N/A   Scattered Clouds
8:20 PM 53.6 °F - 41.0 °F 62% 29.62 in 6.2 mi WSW 6.9 mph - N/A   Partly Cloudy
8:50 PM 50.0 °F - 42.8 °F 76% 29.62 in 6.2 mi West 4.6 mph - N/A   Partly Cloudy
9:20 PM 50.0 °F - 42.8 °F 76% 29.62 in 6.2 mi West 4.6 mph - N/A   Partly Cloudy
9:50 PM 50.0 °F - 39.2 °F 66% 29.65 in 6.2 mi WSW 5.8 mph - N/A   Partly Cloudy
10:20 PM 50.0 °F - 39.2 °F 66% 29.65 in 6.2 mi WSW 5.8 mph - N/A   Partly Cloudy
10:50 PM 53.6 °F - 39.2 °F 58% 29.65 in 6.2 mi Calm Calm - N/A   Partly Cloudy
11:50 PM 51.8 °F - 37.4 °F 58% 29.65 in 6.2 mi WSW 4.6 mph - N/A   Partly Cloudy